Mora, MN

4:18 PM CDT on April 26, 2018 (GMT -0500)
Mora Municipal

Weather History for KJMR - October, 2014

Change the Weather History Date:

Friday, October 3, 2014

  Actual Average Record
Temperature  
Mean Temperature 40 °F -  
Max Temperature 48 °F 64 °F 84 °F (1997)
Min Temperature 33 °F 36 °F 18 °F (1989)
Degree Days  
Heating Degree Days 24    
Moisture  
Dew Point 36 °F    
Average Humidity 85    
Maximum Humidity 100    
Minimum Humidity 70    
Precipitation  
Precipitation 0.20 in - - ()
Sea Level Pressure  
Sea Level Pressure 29.74 in    
Wind  
Wind Speed 11 mph (WNW)    
Max Wind Speed 25 mph    
Max Gust Speed 34 mph    
Visibility 9 miles    
Events Fog , Rain    
Averages and records for this station are not official NWS values.
T = Trace of Precipitation, MM = Missing Value Source: NWS Daily Summary

Daily Weather History Graph

Daily Weather History Graph

Search for Another Location

Airport or City:

Astronomy

Oct. 03, 2014 Rise Set
Actual Time 7:14 AM CDT 6:49 PM CDT
Civil Twilight 6:44 AM CDT 7:18 PM CDT
Nautical Twilight 6:09 AM CDT 7:53 PM CDT
Astronomical Twilight 5:34 AM CDT 8:28 PM CDT
Moon 3:57 PM CDT (10/3) 1:19 AM CDT (10/3)
Length of Visible Light 12h 34m
Length of Day
11h 35m
Waxing Gibbous, 71% of the Moon is Illuminated
Oct 3
Waxing Gibbous
Oct 8
Full
Oct 15
Last Quarter
Oct 23
New
Oct 30
First Quarter

Hourly Weather History & Observations

Time (CDT) Temp. Windchill Dew Point Humidity Pressure Visibility Wind Dir Wind Speed Gust Speed Precip Events Conditions
12:14 AM 48.2 °F - 46.4 °F 93% 29.73 in 1.2 mi Calm Calm - N/A   Overcast
12:34 AM 46.4 °F - 44.6 °F 93% 29.72 in 0.5 mi Calm Calm - N/A Fog Fog
12:54 AM 46.4 °F - 44.6 °F 93% 29.71 in 0.2 mi Calm Calm - N/A Fog Fog
1:14 AM 46.4 °F - 44.6 °F 93% 29.71 in 0.8 mi Calm Calm - N/A   Overcast
1:34 AM 44.6 °F 42.2 °F 44.6 °F 100% 29.72 in 2.0 mi West 4.6 mph - N/A   Overcast
1:54 AM 44.6 °F 39.7 °F 44.6 °F 100% 29.72 in 10.0 mi WNW 9.2 mph - N/A   Clear
2:14 AM 44.6 °F 40.7 °F 44.6 °F 100% 29.72 in 10.0 mi NW 6.9 mph - N/A   Clear
2:34 AM 44.6 °F 39.2 °F 44.6 °F 100% 29.73 in 10.0 mi WNW 10.4 mph - 0.01 in   Clear
2:54 AM 44.6 °F 39.2 °F 44.6 °F 100% 29.72 in 10.0 mi WNW 10.4 mph - 0.01 in   Clear
3:14 AM 44.6 °F 39.2 °F 44.6 °F 100% 29.72 in 10.0 mi WNW 10.4 mph - N/A   Clear
3:34 AM 44.6 °F 39.7 °F 42.8 °F 93% 29.73 in 10.0 mi WNW 9.2 mph 16.1 mph N/A   Mostly Cloudy
3:54 AM 44.6 °F 39.2 °F 42.8 °F 93% 29.72 in 10.0 mi WNW 10.4 mph - N/A   Overcast
4:14 AM 46.4 °F 40.4 °F 42.8 °F 87% 29.72 in 10.0 mi NW 13.8 mph 20.7 mph N/A   Overcast
4:34 AM 44.6 °F 38.8 °F 41.0 °F 87% 29.71 in 10.0 mi WNW 11.5 mph 23.0 mph N/A   Overcast
4:54 AM 44.6 °F 38.4 °F 41.0 °F 87% 29.72 in 10.0 mi WNW 12.7 mph 24.2 mph N/A   Overcast
5:14 AM 44.6 °F 40.2 °F 41.0 °F 87% 29.72 in 10.0 mi WNW 8.1 mph 19.6 mph N/A   Overcast
5:34 AM 44.6 °F 39.2 °F 41.0 °F 87% 29.73 in 10.0 mi WNW 10.4 mph 20.7 mph N/A   Overcast
5:54 AM 44.6 °F 38.4 °F 41.0 °F 87% 29.72 in 10.0 mi WNW 12.7 mph 19.6 mph N/A   Overcast
6:14 AM 44.6 °F 38.8 °F 41.0 °F 87% 29.72 in 10.0 mi WNW 11.5 mph 16.1 mph N/A   Overcast
6:34 AM 44.6 °F 38.1 °F 41.0 °F 87% 29.72 in 10.0 mi WNW 13.8 mph 18.4 mph N/A   Overcast
6:54 AM 44.6 °F 38.4 °F 41.0 °F 87% 29.72 in 10.0 mi WNW 12.7 mph 18.4 mph N/A   Overcast
7:14 AM 42.8 °F 34.8 °F 37.4 °F 81% 29.72 in 10.0 mi WNW 17.3 mph 24.2 mph N/A   Overcast
7:34 AM 42.8 °F 37.5 °F 37.4 °F 81% 29.72 in 10.0 mi WNW 9.2 mph 16.1 mph N/A   Overcast
7:54 AM 42.8 °F 35.8 °F 37.4 °F 81% 29.72 in 10.0 mi WNW 13.8 mph - N/A   Overcast
8:14 AM 42.8 °F 35.4 °F 37.4 °F 81% 29.72 in 10.0 mi WNW 15.0 mph 24.2 mph N/A   Overcast
8:34 AM 41.0 °F 33.5 °F 35.6 °F 81% 29.72 in 10.0 mi WNW 13.8 mph 18.4 mph N/A Rain Light Rain
8:54 AM 39.2 °F 30.2 °F 35.6 °F 87% 29.72 in 7.0 mi WNW 17.3 mph 28.8 mph N/A Rain Light Rain
9:14 AM 39.2 °F 29.0 °F 35.6 °F 87% 29.73 in 10.0 mi WNW 21.9 mph 27.6 mph N/A Rain Light Rain
9:34 AM 39.2 °F 30.8 °F 33.8 °F 81% 29.74 in 10.0 mi WNW 15.0 mph 24.2 mph N/A   Light Drizzle
9:54 AM 39.2 °F 31.6 °F 35.6 °F 87% 29.74 in 10.0 mi WNW 12.7 mph 21.9 mph N/A   Mostly Cloudy
10:14 AM 39.2 °F 31.2 °F 33.8 °F 81% 29.74 in 10.0 mi WNW 13.8 mph 20.7 mph N/A   Scattered Clouds
10:34 AM 37.4 °F 27.8 °F 33.8 °F 87% 29.75 in 10.0 mi WNW 17.3 mph 25.3 mph N/A   Drizzle
10:54 AM 35.6 °F 24.2 °F 32.0 °F 87% 29.75 in 10.0 mi WNW 21.9 mph 34.5 mph 0.01 in Rain Light Rain
11:14 AM 35.6 °F 27.1 °F 32.0 °F 87% 29.76 in 10.0 mi WNW 12.7 mph 26.5 mph 0.02 in Rain Light Rain
11:34 AM 35.6 °F 26.2 °F 32.0 °F 87% 29.77 in 10.0 mi WNW 15.0 mph 26.5 mph 0.03 in Rain Light Rain
11:54 AM 35.6 °F 25.9 °F 32.0 °F 87% 29.77 in 10.0 mi WNW 16.1 mph 26.5 mph 0.04 in Rain Light Rain
12:14 PM 35.6 °F 26.6 °F 33.8 °F 93% 29.77 in 10.0 mi NW 13.8 mph 20.7 mph 0.01 in Rain Light Rain
12:34 PM 35.6 °F 26.2 °F 33.8 °F 93% 29.77 in 7.0 mi NW 15.0 mph 21.9 mph 0.02 in Rain Light Rain
12:54 PM 35.6 °F 25.9 °F 32.0 °F 87% 29.77 in 10.0 mi WNW 16.1 mph 25.3 mph 0.02 in Rain Light Rain
1:14 PM 37.4 °F 28.2 °F 32.0 °F 81% 29.76 in 10.0 mi WNW 16.1 mph 23.0 mph N/A   Mostly Cloudy
1:34 PM 39.2 °F 30.5 °F 32.0 °F 75% 29.76 in 10.0 mi WNW 16.1 mph 28.8 mph N/A   Mostly Cloudy
1:54 PM 39.2 °F 29.6 °F 32.0 °F 75% 29.76 in 10.0 mi NW 19.6 mph 26.5 mph N/A   Overcast
2:14 PM 39.2 °F 30.2 °F 32.0 °F 75% 29.76 in 10.0 mi WNW 17.3 mph 26.5 mph N/A   Overcast
2:34 PM 39.2 °F 29.6 °F 32.0 °F 75% 29.76 in 10.0 mi WNW 19.6 mph 24.2 mph N/A   Overcast
2:54 PM 39.2 °F 29.8 °F 32.0 °F 75% 29.76 in 10.0 mi WNW 18.4 mph 32.2 mph N/A   Mostly Cloudy
3:14 PM 39.2 °F 29.3 °F 32.0 °F 75% 29.76 in 10.0 mi WNW 20.7 mph 31.1 mph N/A   Mostly Cloudy
3:34 PM 39.2 °F 28.7 °F 32.0 °F 75% 29.77 in 10.0 mi WNW 23.0 mph 32.2 mph N/A   Overcast
3:54 PM 39.2 °F 30.8 °F 30.2 °F 70% 29.77 in 10.0 mi WNW 15.0 mph 28.8 mph N/A   Overcast
4:14 PM 39.2 °F 29.6 °F 32.0 °F 75% 29.77 in 10.0 mi WNW 19.6 mph 34.5 mph N/A   Mostly Cloudy
4:34 PM 37.4 °F 25.9 °F 32.0 °F 81% 29.77 in 10.0 mi WNW 25.3 mph 29.9 mph N/A   Overcast
4:54 PM 37.4 °F 26.4 °F 32.0 °F 81% 29.78 in 10.0 mi WNW 23.0 mph 28.8 mph N/A   Overcast
5:14 PM 37.4 °F 28.5 °F 30.2 °F 75% 29.78 in 10.0 mi WNW 15.0 mph 25.3 mph N/A   Overcast
5:34 PM 37.4 °F 28.5 °F 30.2 °F 75% 29.78 in 10.0 mi WNW 15.0 mph 23.0 mph N/A   Overcast
5:54 PM 37.4 °F 26.4 °F 30.2 °F 75% 29.78 in 10.0 mi WNW 23.0 mph 29.9 mph N/A   Overcast
6:14 PM 37.4 °F 27.8 °F 30.2 °F 75% 29.78 in 10.0 mi WNW 17.3 mph 32.2 mph N/A   Overcast
6:34 PM 37.4 °F 29.3 °F 30.2 °F 75% 29.78 in 10.0 mi WNW 12.7 mph 21.9 mph N/A   Overcast
6:54 PM 37.4 °F 27.8 °F 30.2 °F 75% 29.78 in 10.0 mi WNW 17.3 mph 27.6 mph N/A   Overcast
7:14 PM 37.4 °F 29.3 °F 30.2 °F 75% 29.77 in 10.0 mi WNW 12.7 mph 25.3 mph N/A   Mostly Cloudy
7:34 PM 37.4 °F 27.2 °F 30.2 °F 75% 29.77 in 10.0 mi WNW 19.6 mph 29.9 mph N/A   Mostly Cloudy
7:54 PM 37.4 °F 27.8 °F 30.2 °F 75% 29.76 in 10.0 mi WNW 17.3 mph 25.3 mph N/A   Light Drizzle
8:14 PM 35.6 °F 27.1 °F 30.2 °F 81% 29.76 in 10.0 mi WNW 12.7 mph 25.3 mph N/A   Drizzle
8:34 PM 33.8 °F 25.3 °F 32.0 °F 93% 29.75 in 7.0 mi WNW 11.5 mph 26.5 mph N/A Rain Light Rain
8:54 PM 33.8 °F 23.5 °F 32.0 °F 93% 29.75 in 7.0 mi WNW 16.1 mph 28.8 mph 0.01 in Rain Light Rain
9:14 PM 33.8 °F 24.3 °F 32.0 °F 93% 29.74 in 7.0 mi WNW 13.8 mph 23.0 mph N/A   Drizzle
9:34 PM 33.8 °F 23.9 °F 32.0 °F 93% 29.73 in 5.0 mi WNW 15.0 mph 25.3 mph 0.01 in Rain Light Rain
9:54 PM 33.8 °F 25.8 °F 32.0 °F 93% 29.73 in 5.0 mi WNW 10.4 mph 24.2 mph 0.02 in Rain Light Rain
10:14 PM 33.8 °F 23.9 °F 32.0 °F 93% 29.72 in 5.0 mi WNW 15.0 mph 23.0 mph 0.02 in Rain Light Rain
10:34 PM 33.8 °F 23.9 °F 32.0 °F 93% 29.72 in 5.0 mi WNW 15.0 mph 24.2 mph 0.04 in Rain Light Rain
10:54 PM 33.8 °F 23.9 °F 32.0 °F 93% 29.71 in 5.0 mi WNW 15.0 mph 24.2 mph 0.05 in Rain Light Rain
11:14 PM 33.8 °F 23.2 °F 32.0 °F 93% 29.71 in 5.0 mi WNW 17.3 mph 21.9 mph 0.02 in Rain Light Rain
11:34 PM 35.6 °F 25.5 °F 33.8 °F 93% 29.71 in 7.0 mi WNW 17.3 mph 25.3 mph 0.03 in Rain Light Rain
11:54 PM 35.6 °F 26.2 °F 32.0 °F 87% 29.71 in 5.0 mi WNW 15.0 mph - 0.04 in Rain Light Rain